Location: Bright Sky Observatory
(40.7821°N, 74.2425°W)
Time: 20:13:17
(UTC-04:00)

Amateur Radio Satellites - All Passes

Search period start: 17 April 2014 19:43
Search period end: 18 April 2014 19:43
Location: Bright Sky Observatory, 40.7821°N, 74.2425°W

Satellite Date Start Highest point End Downlink Frequencies (MHz)
Time Altitude Azimuth
HO-68 17 Apr 19:53:09 19:58:43 26° 59° (ENE) 20:04:18 435.675 MHz FM
UOSAT-12 17 Apr 20:14:49 20:17:34 15° 321° (NW) 20:20:20 437.025 FM, 437.400 FM
JAS-2 17 Apr 20:31:26 20:35:59 22° 265° (W) 20:40:14 435.800 - 435.900 CW/SSB, 435.910 FM
Saudisat 1A 17 Apr 20:35:47 20:40:12 72° 56° (NE) 20:44:34 436.775 MHz
ISS 17 Apr 20:41:58 20:44:06 16° 13° (NNE) 20:46:14 145.800 FM
STRAND 1 17 Apr 20:49:20 20:53:29 26° 294° (WNW) 20:57:38 ?
Oscar 11 17 Apr 21:31:47 21:35:52 45° 72° (ENE) 21:39:59 145.825 FM, Beacon 2401.500 USB
HO-68 17 Apr 21:38:47 21:45:51 65° 257° (WSW) 21:52:58 435.675 MHz FM
MaSat-1 17 Apr 22:05:08 22:08:08 56° 114° (ESE) 22:10:46 437.345 MHz
Saudisat 1A 17 Apr 22:17:45 22:19:11 11° 252° (WSW) 22:20:37 436.775 MHz
ISS 17 Apr 22:18:11 22:21:28 49° 32° (NNE) 22:24:44 145.800 FM
FUNcube-1 17 Apr 22:52:07 22:56:21 74° 258° (WSW) 23:00:32 145.950 - 145.970 MHz USB
Oscar 11 17 Apr 23:09:43 23:12:18 16° 268° (W) 23:14:53 145.825 FM, Beacon 2401.500 USB
Sapphire 17 Apr 23:45:48 23:46:13 10° 101° (E) 23:46:37 437.095 MHz 1200 baud AX-25 AFSK
ISS 17 Apr 23:55:30 23:57:59 19° 228° (SW) 00:00:27 145.800 FM
PCSat 18 Apr 00:26:11 00:30:45 29° 109° (ESE) 00:35:20 145.825 MHz
SO-50 18 Apr 00:29:07 00:33:27 38° 51° (NE) 00:37:50 436.795 FM
Sapphire 18 Apr 01:23:19 01:28:44 84° 117° (ESE) 01:34:11 437.095 MHz 1200 baud AX-25 AFSK
UOSAT-12 18 Apr 01:23:55 01:25:46 12° 36° (NE) 01:27:37 437.025 FM, 437.400 FM
ITAMSAT 1 18 Apr 01:42:19 01:43:10 10° 88° (E) 01:44:00 435.822 SSB
Oscar 19 18 Apr 01:48:16 01:52:34 26° 95° (E) 01:56:50 437.125 CW, 437.150 USB
KITSAT 1 18 Apr 01:55:00 02:00:15 19° 102° (ESE) 02:05:30 435.175 FM
Oscar 16 18 Apr 01:55:58 02:00:37 32° 97° (E) 02:05:15 437.025 USB, Beacon 2401.1428
AO-Echo 18 Apr 02:05:49 02:08:13 14° 90° (E) 02:10:36 ?
PCSat 18 Apr 02:08:54 02:13:59 40° 306° (NW) 02:19:06 145.825 MHz
SO-50 18 Apr 02:10:01 02:13:52 26° 247° (WSW) 02:17:44 436.795 FM
OPAL 18 Apr 02:11:27 02:16:11 44° 68° (ENE) 02:21:00 ?
Uribyol 2 18 Apr 02:27:58 02:32:38 33° 97° (E) 02:37:16 436.500 FM
Gurwin Techsat 1B 18 Apr 02:50:55 02:54:14 17° 91° (E) 02:57:31 435.225 FM
UOSAT-12 18 Apr 03:02:07 03:06:50 67° 55° (NE) 03:11:30 437.025 FM, 437.400 FM
AO-27 18 Apr 03:06:56 03:12:08 76° 103° (ESE) 03:17:18 436.795 MHz FM
Sapphire 18 Apr 03:09:19 03:12:51 17° 317° (NW) 03:16:24 437.095 MHz 1200 baud AX-25 AFSK
ITAMSAT 1 18 Apr 03:18:06 03:23:18 87° 285° (WNW) 03:28:29 435.822 SSB
Oscar 19 18 Apr 03:27:12 03:31:59 38° 291° (WNW) 03:36:46 437.125 CW, 437.150 USB
Oscar 16 18 Apr 03:35:23 03:39:54 31° 293° (WNW) 03:44:24 437.025 USB, Beacon 2401.1428
TMSAT-1 18 Apr 03:39:07 03:43:53 33° 97° (E) 03:48:38 436.925 FM
AO-Echo 18 Apr 03:42:42 03:47:26 59° 287° (WNW) 03:52:03 ?
KITSAT 1 18 Apr 03:46:27 03:54:35 87° 300° (WNW) 04:02:46 435.175 FM
OPAL 18 Apr 03:51:27 03:55:15 22° 264° (W) 03:59:08 ?
Uosat F 18 Apr 04:00:30 04:03:56 18° 93° (E) 04:07:21 435.120 FM
Uribyol 2 18 Apr 04:07:34 04:12:00 30° 293° (WNW) 04:16:26 436.500 FM
JAS-1B 18 Apr 04:15:48 04:20:53 33° 97° (E) 04:26:05 435.800 - 435.900 CW/SSB
Gurwin Techsat 1B 18 Apr 04:29:22 04:34:36 61° 287° (WNW) 04:39:48 435.225 FM
UOSAT-12 18 Apr 04:43:59 04:46:25 14° 252° (WSW) 04:48:51 437.025 FM, 437.400 FM
AO-27 18 Apr 04:48:20 04:50:59 14° 300° (WNW) 04:53:39 436.795 MHz FM
AO-7 18 Apr 04:58:35 05:06:27 44° 100° (E) 05:14:17 29.400 - 29.500 MHz
ITAMSAT 1 18 Apr 05:00:22 05:02:00 11° 302° (WNW) 05:03:38 435.822 SSB
TMSAT-1 18 Apr 05:19:08 05:23:43 31° 293° (WNW) 05:28:17 436.925 FM
Uosat F 18 Apr 05:38:10 05:43:00 50° 289° (WNW) 05:47:48 435.120 FM
KITSAT 1 18 Apr 05:44:47 05:51:09 25° 322° (NW) 05:57:34 435.175 FM
JAS-1B 18 Apr 06:06:38 06:11:34 31° 294° (WNW) 06:16:33 435.800 - 435.900 CW/SSB
Hamsat 18 Apr 06:14:05 06:16:58 17° 92° (E) 06:19:50 145.90 MHz
STRAND 1 18 Apr 06:25:23 06:30:21 54° 72° (ENE) 06:35:20 ?
MaSat-1 18 Apr 06:30:38 06:31:00 10° 56° (NE) 06:31:23 437.345 MHz
RS-15 18 Apr 06:44:28 06:55:10 50° 111° (ESE) 07:05:30 29.354 - 29.394 USB, Beacon 29.352 USB
AO-7 18 Apr 06:51:30 06:59:09 43° 298° (WNW) 07:06:48 29.400 - 29.500 MHz
JAS-2 18 Apr 07:38:03 07:43:08 41° 99° (E) 07:48:39 435.800 - 435.900 CW/SSB, 435.910 FM
KITSAT 1 18 Apr 07:48:43 07:50:14 11° 352° (N) 07:51:45 435.175 FM
Hamsat 18 Apr 07:49:02 07:53:07 41° 288° (WNW) 07:57:13 145.90 MHz
STRAND 1 18 Apr 08:06:29 08:09:52 18° 268° (W) 08:13:15 ?
MaSat-1 18 Apr 08:06:40 08:09:29 38° 247° (WSW) 08:12:47 437.345 MHz
Oscar 10/S400 18 Apr 08:30:17 03:32:41 37° 137° (SE) 11:40:51 145.825 - 145.975 CW/USB, Beacon 145.810 USB
Sapphire 18 Apr 08:30:24 08:32:29 12° 38° (NE) 08:34:34 437.095 MHz 1200 baud AX-25 AFSK
SO-67 18 Apr 08:39:07 08:42:30 46° 286° (WNW) 08:45:51 435.3500 MHz FM
RS-15 18 Apr 08:56:36 09:07:28 51° 313° (NW) 09:18:06 29.354 - 29.394 USB, Beacon 29.352 USB
HO-68 18 Apr 09:07:30 09:13:11 25° 94° (E) 09:18:51 435.675 MHz FM
PCSat 18 Apr 09:13:56 09:18:22 25° 48° (NE) 09:22:46 145.825 MHz
AO-40 18 Apr 09:21:12 10:24:38 15° 234° (SW) 12:06:17 Beacon 2401.320
JAS-2 18 Apr 09:23:46 09:28:05 26° 294° (WNW) 09:32:41 435.800 - 435.900 CW/SSB, 435.910 FM
KITSAT 1 18 Apr 09:45:49 09:50:06 15° 24° (NNE) 09:54:22 435.175 FM
Sapphire 18 Apr 10:11:39 10:17:02 63° 58° (ENE) 10:22:23 437.095 MHz 1200 baud AX-25 AFSK
FUNcube-1 18 Apr 10:42:12 10:45:26 21° 94° (E) 10:48:42 145.950 - 145.970 MHz USB
Saudisat 1A 18 Apr 10:43:18 10:46:31 20° 111° (ESE) 10:49:45 436.775 MHz
PANSAT 18 Apr 10:43:48 10:45:34 13° 176° (S) 10:47:20 not established
HO-68 18 Apr 10:54:15 11:01:19 62° 291° (WNW) 11:08:21 435.675 MHz FM
Oscar 11 18 Apr 10:55:31 10:59:54 84° 284° (WNW) 11:04:16 145.825 FM, Beacon 2401.500 USB
PCSat 18 Apr 10:56:49 11:02:05 52° 247° (WSW) 11:07:18 145.825 MHz
RS-15 18 Apr 11:15:20 11:23:17 22° 344° (NNW) 11:31:11 29.354 - 29.394 USB, Beacon 29.352 USB
KITSAT 1 18 Apr 11:40:13 11:47:57 45° 50° (NE) 11:55:35 435.175 FM
Sapphire 18 Apr 11:56:24 11:59:55 18° 255° (WSW) 12:03:24 437.095 MHz 1200 baud AX-25 AFSK
FUNcube-1 18 Apr 12:18:07 12:21:54 32° 289° (WNW) 12:25:45 145.950 - 145.970 MHz USB
Saudisat 1A 18 Apr 12:21:32 12:25:49 44° 308° (NW) 12:30:07 436.775 MHz
PANSAT 18 Apr 12:23:44 12:25:01 11° 189° (S) 12:26:19 not established
HO-68 18 Apr 12:45:04 12:47:36 12° 310° (NW) 12:50:08 435.675 MHz FM
AO-27 18 Apr 12:48:27 12:51:13 15° 60° (ENE) 12:54:00 436.795 MHz FM
ITAMSAT 1 18 Apr 12:58:45 13:02:09 18° 62° (ENE) 13:05:33 435.822 SSB
Oscar 19 18 Apr 13:04:53 13:09:32 36° 69° (ENE) 13:14:14 437.125 CW, 437.150 USB
Oscar 16 18 Apr 13:12:40 13:17:33 46° 71° (ENE) 13:22:28 437.025 USB, Beacon 2401.1428
AO-Echo 18 Apr 13:17:49 13:21:40 21° 65° (ENE) 13:25:28 ?
RS-15 18 Apr 13:32:48 13:41:06 24° 21° (NNE) 13:49:26 29.354 - 29.394 USB, Beacon 29.352 USB
KITSAT 1 18 Apr 13:35:47 13:43:19 44° 250° (WSW) 13:50:48 435.175 FM
Uribyol 2 18 Apr 13:45:35 13:50:32 49° 71° (ENE) 13:55:31 436.500 FM
AO-7 18 Apr 14:10:37 14:14:06 13° 45° (NE) 14:17:34 29.400 - 29.500 MHz
Gurwin Techsat 1B 18 Apr 14:11:31 14:15:52 27° 66° (ENE) 14:20:13 435.225 FM
OPAL 18 Apr 14:23:58 14:25:40 12° 91° (E) 14:27:22 ?
AO-27 18 Apr 14:24:55 14:30:06 74° 257° (WSW) 14:35:19 436.795 MHz FM
ITAMSAT 1 18 Apr 14:36:03 14:41:10 59° 259° (W) 14:46:18 435.822 SSB
Oscar 19 18 Apr 14:44:38 14:48:56 27° 265° (W) 14:53:16 437.125 CW, 437.150 USB
SO-50 18 Apr 14:47:09 14:48:38 11° 107° (ESE) 14:50:06 436.795 FM
Oscar 16 18 Apr 14:53:18 14:57:07 21° 267° (W) 15:00:58 437.025 USB, Beacon 2401.1428
AO-Echo 18 Apr 14:55:00 15:00:06 49° 260° (W) 15:05:07 ?
TMSAT-1 18 Apr 14:59:34 15:04:39 51° 71° (ENE) 15:09:47 436.925 FM
JAS-1B 18 Apr 14:59:45 15:06:52 36° 67° (ENE) 15:12:59 435.800 - 435.900 CW/SSB
ISS 18 Apr 15:01:36 15:03:55 18° 131° (SE) 15:06:15 145.800 FM
Uosat F 18 Apr 15:13:27 15:17:33 26° 66° (ENE) 15:21:41 435.120 FM
Uribyol 2 18 Apr 15:26:36 15:30:16 20° 267° (W) 15:33:58 436.500 FM
RS-15 18 Apr 15:45:33 15:56:22 61° 51° (NE) 16:07:24 29.354 - 29.394 USB, Beacon 29.352 USB
Gurwin Techsat 1B 18 Apr 15:50:40 15:55:37 39° 262° (W) 16:00:36 435.225 FM
AO-7 18 Apr 15:57:07 16:05:09 59° 66° (ENE) 16:13:13 29.400 - 29.500 MHz
OPAL 18 Apr 15:59:54 16:05:08 84° 287° (WNW) 16:10:21 ?
SO-50 18 Apr 16:24:05 16:28:33 73° 304° (WNW) 16:33:05 436.795 FM
ISS 18 Apr 16:37:07 16:40:23 53° 328° (NNW) 16:43:42 145.800 FM
TMSAT-1 18 Apr 16:41:04 16:44:51 20° 268° (W) 16:48:40 436.925 FM
JAS-1B 18 Apr 16:49:26 16:57:21 46° 260° (W) 17:04:03 435.800 - 435.900 CW/SSB
Uosat F 18 Apr 16:51:32 16:56:10 37° 262° (W) 17:00:49 435.120 FM
Hamsat 18 Apr 17:08:53 17:10:39 12° 63° (ENE) 17:12:25 145.90 MHz
UOSAT-12 18 Apr 17:14:19 17:17:41 21° 111° (ESE) 17:21:05 437.025 FM, 437.400 FM
OPAL 18 Apr 17:41:25 17:43:12 12° 304° (NW) 17:44:59 ?
AO-7 18 Apr 17:51:13 17:58:17 31° 264° (W) 18:05:25 29.400 - 29.500 MHz
JAS-2 18 Apr 17:52:29 17:56:03 17° 63° (ENE) 17:59:28 435.800 - 435.900 CW/SSB, 435.910 FM
RS-15 18 Apr 17:58:26 18:08:14 40° 252° (WSW) 18:18:18 29.354 - 29.394 USB, Beacon 29.352 USB
SO-50 18 Apr 18:08:13 18:09:57 12° 324° (NW) 18:11:41 436.795 FM
ISS 18 Apr 18:15:33 18:17:44 16° 347° (NNW) 18:19:55 145.800 FM
STRAND 1 18 Apr 18:37:19 18:40:48 18° 92° (E) 18:44:15 ?
Hamsat 18 Apr 18:41:59 18:46:07 59° 260° (W) 18:50:19 145.90 MHz
UOSAT-12 18 Apr 18:53:07 18:57:30 45° 308° (NW) 19:01:59 437.025 FM, 437.400 FM
Saudisat 1A 18 Apr 19:09:49 19:12:54 18° 43° (NE) 19:15:58 436.775 MHz
SO-67 18 Apr 19:12:22 19:15:45 51° 75° (ENE) 19:19:10 435.3500 MHz FM
